NOAA 16 DEB, 41526

Orbit data source: Space-Track

NOAA 16 DEB, 41526 is space debris in SSO originally from a launch on Thu, 21 Sep 2000 UTC launched from the Air Force Western Test Range (AFWTR). Debris objects in space refer to the collection of defunct objects orbiting the Earth. Examples of debris include non-operational satellites, rocket bodies, and fragments generated from explosions, collisions, or faulty payload assembly.

Loading next visibility...
Identifier
41526, 2000-055NA
Orbit
SSO
Country
Flag of USUS
Related business
Manufacturer
Unknown
Mission
Spacecraft
Bus & Motor
Unknown
Mass
Unknown
Launch date (UTC)
2000-09-21 (26 years ago)
Launch vehicle
Unknown
Launch site
Air Force Western Test Range (AFWTR)
Object type
Payload
Rocket body
Debris
Shape & HBR
Unknown shape, 0.1 m
Radar Cross Section
Medium (>0.1 m² and <1 m²)

Expand to show TLE details & history
Last TLE update: 3 days ago

TLE from 3 days ago
0 NOAA 16 DEB
1 41526U 00055NA  26234.37014717  .00004762  00000-0  12054-2 0  9998
2 41526  98.9960  83.0965 0019313 359.2907   0.8255 14.51309601542241
Epoch: 2026-08-22T08:53Z
TLE epoch observation values (Epoch: 2026-08-22T08:53:00.715Z)
Latitude
-0.00004°
Longitude
-20.838°
Altitude
710.61 km
Speed
7.508 km/s
True Right ascension
05h 32m 23s
True Declination
0° 00' 00"
Sunlit
Object was in daylight at epoch
Visualization orbit readout
Latitude
Unknown
Longitude
Unknown
Altitude
Unknown
Speed
Unknown
Apparent Right ascension
Unknown
Apparent Declination
Unknown
Sunlit
N/A
Visualization observer readout
Local Sidereal Time
04:08:39
Azimuth
Unknown
Elevation
Unknown
Doppler factor
Unknown
Orbital elements
Apogee altitude
732.211 km
Perigee altitude
704.8 km
Semi-major axis
7,096.642 km
Eccentricity
0.00193
Inclination
98.996°
RAAN
83.0965°
Arg. of periapsis
359.2907°
True anomaly
0.8287°
Mean anomaly
0.8255°
Eccentric anomaly
0.8271°
Mean motion
3.63048 °/min
Orbital period
99.16 mins
BSTAR
0.0012054
Loading maneuver chart data...
Computing Atmospheric mass density...
Loading historical data...
Loading historical data...
Loading historical data...
Loading historical data...
Loading historical data...
Loading historical data...
Loading historical data...

Documentation

Showing up to 5 results
|